Wind_Speed
17 17 16 16 16 16 16 17 17 18 19 20 21 21 22 22 23 24 25 25 26 27 27 28 29 30 31 31 32 33 34 34 34 34 34 34 34 33 32 32 31 30 28 26 24 23 21 20 19 17 15 13 12 12 12 13 13 11 9 8 9 8 6 6 7 6 6 6 5 8 11 12 11 12 12 13 18 20 21 23 25 26 28 28 29 29 30 31
15 15 14 14 14 14 14 15 16 16 17 18 19 19 20 21 22 22 23 24 25 26 26 27 27 28 29 29 30 30 30 30 30 30 29 29 28 27 26 25 23 21 19 18 16 14 12 12 11 8 4 3 5 6 6 6 7 9 11 10 9 10 12 13 13 12 11 9 5 8 12 12 14 16 18 19 20 18 19 21 23 26 27 25 25 25 26 26
14 13 13 13 12 13 13 14 14 15 16 16 17 18 18 19 20 21 22 23 24 24 25 25 26 27 27 27 27 27 27 26 26 25 24 24 22 20 19 17 16 14 13 11 10 7 5 4 2 2 5 7 8 8 9 10 12 14 15 15 16 18 18 16 15 15 11 8 8 10 10 11 15 18 20 21 18 17 18 18 18 21 22 21 22 23 24 24
12 12 11 11 11 11 12 13 13 14 14 15 15 16 17 18 19 20 21 22 22 23 23 24 25 25 25 24 24 24 23 23 22 20 20 19 17 14 13 12 12 10 9 7 6 4 3 5 8 9 11 13 16 16 15 16 17 16 17 18 18 20 19 16 17 15 9 7 9 10 7 9 13 15 18 19 16 14 15 14 13 13 14 15 18 20 21 20
10 11 11 10 10 11 11 11 11 12 13 13 14 15 16 17 18 19 20 21 22 22 22 22 23 22 22 21 21 20 19 18 18 16 15 15 12 10 12 12 11 10 7 7 7 7 8 11 14 15 16 17 18 18 18 19 20 18 18 17 18 20 18 17 17 15 13 9 9 10 10 13 16 17 19 18 14 11 11 11 11 10 11 13 14 15 16 16
10 10 10 10 10 10 10 10 10 11 12 13 13 14 15 16 17 18 19 20 20 21 20 20 20 19 19 18 17 16 15 15 13 12 12 11 9 11 13 12 13 12 9 10 11 12 15 17 18 20 20 19 19 18 18 19 20 19 18 16 17 19 16 15 14 13 17 15 14 17 19 20 20 20 18 16 13 11 10 8 10 11 11 12 13 14 14 14
9 10 10 9 9 10 10 10 10 11 11 12 13 14 15 16 17 18 18 18 18 18 18 17 17 16 15 13 13 12 12 11 10 10 9 8 10 13 12 12 15 14 13 14 16 18 21 24 25 25 23 21 19 17 16 17 17 16 16 14 15 17 16 14 11 11 17 19 20 21 23 24 22 19 16 14 12 12 11 9 10 12 11 12 13 13 13 12
9 10 10 9 9 9 9 9 10 10 11 12 13 14 15 16 16 17 17 17 17 16 16 16 15 13 11 10 9 9 9 8 7 6 5 9 12 13 12 13 14 15 16 17 21 24 26 30 30 28 25 22 20 19 18 18 16 15 15 16 17 17 17 16 13 14 18 21 22 21 23 25 23 19 15 13 14 13 11 11 11 12 13 14 13 12 11 9
9 9 9 9 9 9 9 9 10 10 11 12 13 14 15 15 15 15 15 16 16 15 14 14 12 10 8 7 6 6 7 6 5 3 7 11 12 12 11 11 14 18 19 22 28 30 29 31 30 28 26 24 24 23 21 21 19 19 20 18 18 18 17 17 16 17 20 22 22 21 23 24 22 19 15 15 15 14 13 14 14 15 16 15 14 13 11 9
9 9 9 8 8 8 9 9 9 10 11 12 13 13 13 13 14 14 14 15 14 13 12 11 9 7 6 5 4 5 6 5 3 5 10 12 11 11 11 12 17 22 23 27 31 30 28 28 26 27 28 26 25 24 24 24 23 23 23 22 21 21 21 21 21 22 23 24 22 21 21 21 20 20 19 19 19 19 19 20 20 19 17 16 14 12 10 7
8 8 8 8 8 8 8 8 9 10 11 11 12 12 11 11 11 12 13 13 12 11 9 7 6 5 4 3 3 3 4 2 1 8 12 12 10 11 14 17 20 22 22 28 31 30 30 30 27 27 28 26 24 24 25 24 24 24 25 25 24 25 25 25 25 24 24 25 23 21 21 22 23 25 26 26 25 24 23 21 20 18 16 14 12 10 8 6
8 8 8 8 8 8 7 8 8 9 10 10 10 9 8 8 9 11 11 10 9 8 5 4 4 5 5 5 3 2 1 2 5 11 12 12 12 13 17 21 23 22 23 29 32 31 32 31 29 28 27 25 23 23 24 26 28 28 27 28 27 27 27 27 27 25 24 25 25 24 25 27 29 29 29 28 27 26 22 20 18 16 14 12 11 9 6 5
8 7 7 8 7 7 7 7 8 9 9 9 8 7 7 7 8 8 8 8 7 5 2 2 4 6 6 5 4 3 3 5 8 13 13 13 14 16 20 24 24 25 27 30 31 32 32 30 28 27 26 24 24 25 24 26 28 28 29 28 28 28 26 26 27 27 25 26 28 28 28 29 30 30 28 27 25 23 21 18 16 15 12 10 9 7 5 4
9 7 7 7 7 7 7 6 7 8 8 7 7 6 7 7 6 6 6 6 5 3 1 2 5 5 5 6 4 4 6 8 11 14 15 16 17 18 21 26 26 26 29 29 30 32 32 28 25 24 22 20 23 25 24 23 24 26 28 28 28 28 25 25 26 27 26 26 28 29 28 29 29 28 26 24 22 21 19 15 14 14 10 8 8 6 5 5
10 8 7 7 7 7 7 6 6 7 7 6 7 6 7 7 5 4 5 5 4 2 3 4 7 6 6 8 5 7 11 11 12 14 15 17 18 18 20 27 29 27 26 26 29 32 29 25 22 21 20 19 20 22 23 22 23 24 26 27 26 26 25 24 24 25 25 24 25 26 26 26 27 25 23 19 19 18 17 14 12 12 8 7 7 7 6 8
10 8 6 7 7 7 7 6 5 6 6 6 7 7 8 7 5 5 5 4 3 4 5 5 8 8 7 7 6 10 12 12 14 15 16 17 18 18 21 27 30 28 25 24 26 29 27 20 18 20 20 18 17 19 21 21 21 21 21 22 22 22 21 20 21 23 23 22 22 22 21 22 22 21 18 15 15 16 14 12 10 9 7 6 6 6 7 9
11 9 7 6 7 8 7 6 4 5 6 7 8 8 9 9 8 7 6 4 4 7 7 6 6 5 4 6 8 11 13 15 16 17 17 17 18 20 23 27 29 29 28 26 26 27 24 18 17 19 19 16 15 18 19 18 18 19 20 22 21 22 20 18 20 21 20 20 19 19 18 19 19 18 16 14 13 13 11 10 9 8 7 7 7 7 8 10
11 10 7 6 7 8 8 6 4 4 5 8 10 11 11 12 12 9 6 6 6 6 6 5 4 2 4 7 10 13 15 17 19 19 18 17 19 22 25 28 29 30 30 29 28 26 22 20 19 19 19 17 16 16 17 17 18 20 22 23 22 22 20 18 19 18 19 19 18 18 17 17 17 15 14 13 11 10 9 9 9 8 8 8 8 8 8 9
12 10 8 6 6 7 7 6 5 5 6 8 10 14 15 16 14 11 10 8 7 4 2 4 4 3 5 10 12 14 17 18 20 20 19 20 21 23 26 29 30 32 31 28 27 24 21 22 21 20 20 18 17 17 17 17 17 18 20 21 21 22 21 19 16 13 16 17 16 17 16 15 14 13 12 11 9 8 8 8 7 6 7 8 8 9 9 10
12 11 8 6 6 7 7 6 5 6 7 9 12 16 17 16 13 12 13 10 6 4 3 2 3 3 7 11 12 13 17 19 20 21 22 22 22 23 27 30 31 33 32 27 25 23 21 22 21 21 22 21 20 18 16 16 14 14 17 20 24 25 23 19 13 10 13 15 16 17 16 14 13 12 10 9 9 8 7 6 5 5 6 8 9 9 10 12
12 11 9 7 6 7 7 6 6 7 9 11 14 17 19 17 14 14 13 11 10 9 8 6 4 5 9 11 11 13 17 20 20 22 23 24 24 26 29 31 32 32 30 26 23 21 20 19 19 21 23 22 21 20 18 17 15 16 18 21 25 25 21 18 15 13 13 13 15 15 15 14 12 11 9 6 7 6 3 4 4 6 8 9 11 10 11 13
13 12 10 8 6 6 7 6 6 7 10 12 15 18 20 21 19 17 15 14 14 13 12 10 6 7 11 12 12 13 17 20 21 23 25 26 26 28 31 32 32 30 27 23 19 16 15 16 18 21 22 21 23 23 19 16 16 18 19 20 22 22 21 19 18 15 12 12 12 11 12 13 11 11 8 4 4 5 3 4 6 9 9 10 12 12 12 13
15 12 10 8 6 6 7 6 6 8 11 13 17 20 21 23 22 20 19 17 16 16 15 12 9 10 13 15 15 14 17 20 22 23 25 27 26 28 31 30 29 27 24 20 17 15 16 19 22 23 24 25 26 24 20 16 17 19 19 20 21 21 21 19 17 15 13 11 10 9 10 10 9 9 7 4 3 4 5 7 9 10 9 10 12 12 12 13
16 13 11 9 7 6 6 7 6 8 12 14 18 21 21 24 24 23 23 20 19 18 16 14 11 13 15 18 18 17 18 21 22 23 25 26 27 27 29 28 27 25 22 19 19 20 22 25 26 27 29 29 26 23 20 19 20 19 19 21 22 21 20 17 16 15 13 10 9 8 9 8 7 6 5 5 5 7 8 8 10 10 10 10 11 14 14 16
18 15 12 9 8 6 6 7 7 8 12 15 19 21 22 25 25 25 23 19 19 18 16 15 13 15 17 20 21 20 20 22 23 24 25 26 27 27 28 28 26 23 22 22 23 24 25 26 27 27 28 27 23 21 19 18 19 19 19 21 22 21 18 16 16 15 12 9 8 8 7 6 6 5 6 7 8 9 8 7 8 10 11 10 11 15 16 17
19 16 13 10 9 7 6 7 7 8 10 15 20 21 24 27 26 26 22 16 17 18 17 16 15 17 19 22 23 22 22 22 23 24 24 25 26 26 26 26 24 22 23 24 25 26 26 25 25 25 23 23 22 19 18 17 17 18 20 23 24 22 17 14 14 13 11 9 7 7 7 7 7 6 6 7 7 7 7 6 7 9 11 10 11 16 17 19
21 18 15 12 10 8 7 7 7 7 9 15 19 21 24 28 26 25 22 16 17 19 18 18 17 18 21 23 25 24 23 22 23 22 22 23 23 24 24 23 22 23 24 24 24 24 24 25 24 23 21 21 20 18 19 19 18 20 23 24 23 21 18 14 13 10 9 8 7 7 8 8 7 7 6 6 5 5 6 7 7 8 11 11 13 17 18 19
22 19 16 13 11 9 7 7 7 8 10 13 17 21 25 27 26 25 22 17 17 19 19 19 19 19 22 24 26 25 24 23 22 22 21 21 21 21 22 22 22 22 23 23 23 22 22 23 23 22 22 21 19 18 20 20 20 21 23 24 22 21 18 16 13 9 7 8 7 7 8 9 8 7 5 4 5 5 6 7 6 8 12 14 16 18 19 20
23 20 17 14 12 10 7 7 7 8 9 11 16 21 24 26 26 26 23 17 17 19 20 21 20 21 23 25 26 25 25 24 22 21 21 20 20 19 19 20 21 20 19 21 21 20 20 21 21 22 22 21 19 18 18 19 21 22 23 24 23 21 18 15 14 10 6 7 8 6 7 7 6 5 4 4 5 6 7 7 8 10 13 15 17 19 20 21
24 22 19 15 13 11 8 7 7 7 9 11 16 19 22 26 26 26 22 16 15 18 21 22 21 22 24 25 25 25 24 24 22 21 20 19 19 18 18 19 19 18 18 19 19 18 18 19 19 20 21 21 20 19 19 19 20 20 21 21 20 18 15 12 11 8 6 8 9 8 6 5 2 2 3 4 5 6 7 9 10 12 13 16 18 20 21 21
26 23 21 17 14 12 9 8 7 7 8 10 13 17 21 24 23 24 22 16 15 18 21 23 22 22 24 24 24 23 23 22 21 20 19 18 18 18 18 18 17 16 18 19 18 17 16 17 18 19 21 21 21 21 20 19 18 17 17 18 17 15 13 11 10 7 7 9 11 9 6 3 1 3 5 4 5 6 8 9 10 12 14 17 20 22 23 22
27 25 23 19 16 14 11 9 8 7 8 9 13 16 20 22 22 23 20 16 16 19 21 23 23 23 24 24 24 23 23 22 21 19 18 18 19 19 18 17 15 15 15 16 17 17 16 16 17 19 19 20 21 21 20 18 17 17 17 17 16 14 12 11 9 7 7 9 12 10 6 3 1 3 5 4 5 8 11 12 12 14 16 19 21 23 24 24
29 27 25 22 18 16 13 11 9 8 8 9 13 15 18 22 22 20 19 16 16 18 22 23 23 24 24 24 25 25 24 22 21 20 20 20 20 19 17 15 14 15 15 13 12 15 16 16 17 18 18 18 18 18 19 18 18 17 16 15 14 13 13 11 8 7 8 9 12 11 6 3 1 3 5 5 6 8 10 14 16 17 19 21 22 23 24 23
31 29 27 24 21 18 15 13 10 9 8 9 12 15 19 23 23 19 18 17 15 16 20 22 23 26 26 25 26 26 24 22 20 20 21 21 20 19 18 16 15 16 16 13 11 14 16 16 16 16 16 16 16 15 15 16 17 15 13 12 11 11 12 10 8 9 9 10 12 10 6 4 3 3 5 6 7 7 9 12 16 17 19 21 21 22 22 20
33 31 29 27 24 20 17 15 12 10 10 10 12 16 21 26 25 20 17 16 15 14 17 20 24 26 26 25 26 26 26 25 22 20 20 20 20 20 20 20 18 15 15 15 14 14 14 13 15 15 15 16 15 14 14 14 14 13 12 11 9 9 10 10 9 10 9 10 11 9 7 5 4 5 5 7 8 8 11 13 15 18 19 19 21 20 18 15
34 33 31 29 26 23 20 17 15 13 11 11 13 17 22 24 24 22 19 18 18 16 17 20 24 28 27 26 27 27 26 25 23 21 20 21 22 23 23 22 20 17 17 17 15 15 15 14 15 15 15 15 15 14 14 12 11 11 11 10 8 8 9 9 9 8 6 8 8 7 7 6 6 6 5 8 10 11 13 15 17 19 19 19 21 18 13 11
36 35 33 31 29 26 22 19 17 15 13 13 14 16 20 22 24 24 22 21 21 18 19 21 25 30 29 28 28 27 26 25 24 23 22 22 23 24 24 21 20 21 21 18 17 17 16 16 17 16 16 16 15 15 14 12 11 10 9 9 8 8 8 6 5 5 5 5 5 5 5 4 6 5 6 10 12 13 15 16 18 19 18 17 18 14 9 9
37 37 36 33 31 29 25 22 19 17 16 15 16 18 21 24 27 26 24 23 22 20 22 24 27 30 29 28 26 25 25 25 24 24 24 23 22 22 23 21 22 24 22 20 20 18 16 16 17 16 17 16 15 14 12 11 11 9 7 8 8 6 6 4 3 4 4 3 4 3 4 5 6 6 9 11 12 13 15 16 17 19 19 16 12 8 7 8
38 39 37 35 34 31 27 24 21 19 18 18 19 21 23 27 29 28 27 28 25 23 26 28 28 29 30 28 27 26 26 25 25 26 26 25 22 21 23 24 24 25 22 21 20 18 16 16 15 14 15 15 14 13 11 9 9 6 4 6 6 5 4 3 4 6 5 5 6 6 7 8 8 9 11 12 13 14 16 17 18 19 18 11 7 5 5 6
39 39 38 37 36 34 31 27 24 22 21 21 21 22 24 27 30 29 28 29 27 28 31 30 27 27 28 27 27 27 27 26 27 27 26 25 23 21 24 25 25 24 23 21 20 18 17 16 14 14 14 14 12 11 9 8 8 6 5 5 5 5 5 5 6 8 8 8 8 8 8 9 10 12 13 13 13 15 16 17 19 19 14 7 5 5 5 6
40 40 40 40 38 36 33 29 26 26 25 23 23 23 24 26 28 28 25 25 27 30 33 31 26 26 26 25 24 25 27 28 28 27 26 27 24 22 24 25 24 23 22 20 18 17 17 15 14 14 14 12 10 9 9 9 9 8 8 6 5 5 6 6 6 8 9 9 9 9 9 10 11 12 13 14 14 16 17 18 19 17 10 5 5 6 5 5
43 42 42 42 40 38 36 32 31 29 27 26 25 26 26 27 29 29 24 24 28 32 35 33 28 27 27 25 23 24 26 28 28 26 26 27 24 22 25 26 24 22 21 19 16 15 15 14 13 13 12 10 10 11 12 11 10 9 8 7 6 6 6 6 8 9 9 9 10 10 10 11 12 12 13 14 16 17 18 17 18 15 7 5 7 6 5 6
45 41 42 44 43 41 39 36 34 31 29 29 28 28 28 29 30 30 27 28 30 32 34 33 30 28 29 27 26 25 24 25 26 26 26 27 26 25 26 25 22 21 20 17 14 14 15 14 13 14 12 9 10 11 12 11 10 9 8 8 8 9 8 7 8 9 9 10 11 11 12 13 14 13 13 15 17 18 17 17 17 13 7 6 6 6 6 7
46 42 45 49 46 44 42 40 38 36 33 32 31 30 31 31 31 30 29 30 31 31 32 33 30 28 28 29 27 25 24 23 26 27 24 25 27 26 24 24 22 21 19 15 13 13 14 12 12 14 12 9 10 9 8 10 9 8 9 9 9 10 10 9 9 10 10 11 12 12 12 13 13 13 14 17 18 18 19 18 16 12 7 6 7 6 7 9
50 47 50 51 48 46 45 44 43 40 37 35 34 34 34 32 32 31 30 31 32 32 33 34 33 29 29 30 29 27 27 25 26 27 23 24 27 25 23 23 22 20 19 17 14 13 13 12 12 12 11 10 10 8 7 9 8 6 8 10 10 10 10 11 10 10 11 14 14 12 13 13 12 13 16 19 20 20 20 19 17 14 9 7 8 7 7 9
54 51 51 51 49 48 48 47 44 42 39 37 36 36 34 33 33 33 33 33 33 33 34 34 33 31 31 32 32 31 31 28 28 29 25 24 24 22 22 23 21 20 19 17 15 13 13 12 12 12 11 12 11 9 9 10 8 7 9 12 12 12 12 12 12 12 13 15 15 14 13 13 13 14 17 19 21 22 21 20 19 16 11 9 10 9 8 9
58 54 52 51 50 50 50 48 47 46 43 40 38 37 36 35 36 35 34 34 34 34 35 34 34 33 32 33 33 32 31 30 29 28 26 24 21 19 21 22 21 20 19 17 16 16 14 13 13 12 12 14 14 13 13 13 12 13 13 14 14 14 15 14 14 14 14 15 17 16 15 15 16 17 18 20 23 24 23 21 20 17 14 12 11 10 10 10
60 54 51 51 50 51 52 50 49 49 45 42 41 41 40 39 38 37 36 36 35 35 35 34 34 34 34 34 34 32 31 31 31 28 25 24 21 19 20 22 22 21 20 20 19 18 16 15 14 14 14 16 17 18 18 17 17 18 18 17 17 17 17 17 16 16 16 16 18 18 18 19 20 20 21 24 25 25 24 23 22 18 16 15 13 11 11 11
60 55 53 51 49 52 53 51 51 50 47 46 45 44 42 41 40 39 39 39 38 37 36 35 35 36 36 36 35 33 31 31 29 27 25 23 22 21 20 21 23 23 22 21 20 20 19 17 17 18 17 18 19 20 21 21 21 21 20 19 19 18 18 18 18 18 18 18 19 21 21 22 23 24 25 25 25 24 24 24 22 19 16 16 15 13 12 11
63 60 58 53 51 53 54 54 54 53 51 50 49 46 44 43 43 43 42 41 39 37 37 39 40 38 36 36 37 35 32 29 28 27 25 21 23 25 23 21 23 24 24 22 22 22 21 19 19 20 20 20 21 21 22 23 23 22 20 19 20 19 19 19 20 20 20 20 22 22 23 24 24 24 25 25 24 25 25 23 21 18 16 16 16 14 13 13
67 64 62 59 56 55 56 57 57 57 55 53 52 50 48 47 46 45 43 41 39 40 41 41 39 34 33 35 37 33 30 30 30 29 27 23 23 26 27 24 23 23 23 23 23 23 22 22 22 22 22 22 22 22 23 23 23 22 21 21 21 21 21 21 21 22 22 22 24 25 25 25 24 24 25 27 27 28 26 24 20 17 15 16 16 15 14 14
71 68 65 63 59 56 57 59 60 61 59 57 55 53 51 50 49 47 45 43 43 44 43 40 35 34 36 38 36 32 32 33 35 35 33 30 27 26 28 28 24 23 23 24 25 24 23 24 25 25 25 24 24 24 24 23 23 22 22 23 23 22 22 23 23 24 24 25 26 26 26 24 25 26 27 28 29 28 25 22 18 16 15 15 15 15 15 16
Wind_Direction
274 273 271 270 268 267 265 262 260 258 258 257 257 257 257 257 258 258 258 259 260 260 261 262 264 265 266 268 270 272 274 276 280 283 286 289 292 294 296 297 297 298 299 300 301 299 297 293 288 284 279 276 267 253 245 236 226 215 203 204 209 193 159 135 119 120 138 139 161 170 160 154 174 224 218 209 223 219 216 222 227 232 235 242 247 252 257 257
276 275 274 273 271 269 267 263 260 258 257 256 256 256 256 256 255 256 256 257 258 259 260 261 263 265 267 269 271 274 277 281 284 287 290 293 295 298 299 300 304 309 313 315 315 312 304 294 285 274 258 244 229 207 181 169 159 148 140 128 123 114 101 97 96 97 96 92 120 150 137 144 170 195 200 205 214 207 210 224 231 236 238 242 247 251 254 253
279 279 278 276 274 271 267 264 260 258 257 255 255 255 254 254 254 255 255 257 257 259 260 262 264 266 268 271 274 277 281 284 287 290 293 295 297 301 306 315 326 334 341 341 339 334 310 296 279 165 134 120 110 102 105 112 112 116 119 110 101 96 95 97 96 90 82 88 121 131 131 160 181 189 199 207 207 195 203 220 229 238 241 242 245 247 249 252
283 284 284 280 276 272 268 264 262 259 258 256 255 254 254 254 254 254 255 257 258 260 261 263 265 267 271 274 277 280 283 286 289 294 297 299 303 314 334 354 4 11 18 26 34 43 96 105 104 108 106 104 96 88 90 96 101 107 111 110 104 98 97 99 99 100 92 90 108 112 126 156 170 180 189 194 190 187 196 205 211 224 233 236 239 241 245 248
289 291 289 285 280 276 271 267 265 262 260 258 256 256 256 256 256 256 256 257 258 260 261 264 267 269 273 275 278 282 286 291 295 301 304 307 319 349 18 34 45 51 52 58 67 78 94 99 98 95 92 94 93 90 92 97 99 101 104 111 114 108 99 94 101 113 108 98 114 134 147 147 150 160 167 171 169 166 177 193 204 214 225 228 228 230 234 239
294 294 291 288 285 280 276 273 270 266 263 261 259 258 257 257 256 255 256 257 259 261 263 265 268 270 273 276 281 287 293 299 305 312 315 323 354 30 45 63 77 76 67 65 74 81 83 84 85 87 90 92 94 91 93 98 98 99 102 113 126 122 112 104 107 117 121 133 152 151 151 149 146 150 161 168 164 158 163 185 203 208 214 213 212 218 225 235
299 297 293 291 289 285 281 278 274 270 267 263 261 258 255 255 254 254 254 255 257 259 261 262 264 267 271 277 287 297 304 310 319 322 326 358 35 50 59 83 93 85 75 75 79 81 82 81 79 81 86 88 89 85 85 90 94 103 108 115 131 138 139 136 134 137 140 151 159 154 149 146 145 151 164 171 167 165 164 174 189 193 198 199 202 209 215 219
302 299 297 296 294 291 286 282 277 273 269 264 260 257 255 253 253 253 252 251 251 252 253 255 259 264 270 281 294 308 317 325 329 328 358 43 61 70 76 92 97 87 83 85 84 84 85 83 80 79 83 86 84 79 79 85 91 102 106 111 124 136 147 150 153 153 150 153 158 158 150 143 144 153 163 169 167 158 153 165 176 180 183 183 182 182 181 175
303 302 301 302 300 297 292 285 280 275 269 263 259 257 256 254 253 250 247 245 244 245 248 250 257 266 277 291 307 321 332 338 331 356 53 67 78 85 86 92 97 95 94 94 91 88 84 81 82 83 85 87 85 82 81 83 86 93 99 105 112 118 126 131 136 141 146 153 155 152 146 144 145 148 152 156 153 141 141 152 152 155 160 156 152 148 143 137
303 305 305 306 304 302 298 290 285 277 269 264 259 258 258 257 253 247 242 240 239 241 244 251 263 278 292 308 327 339 345 335 331 64 79 85 88 92 92 89 97 105 105 100 95 90 85 85 87 88 86 82 82 84 84 86 87 90 95 100 105 109 111 113 118 125 135 142 142 140 141 143 141 138 139 138 136 135 141 143 137 138 139 134 132 126 123 120
301 307 308 309 308 308 303 297 290 280 272 265 261 262 261 260 253 245 242 239 236 237 242 257 277 299 320 346 356 354 355 314 103 91 93 98 102 105 102 94 99 109 110 103 98 92 89 87 85 85 83 80 81 85 85 88 90 91 95 98 102 106 107 109 110 115 125 130 130 132 132 131 130 130 132 133 133 136 139 135 130 128 125 123 120 115 113 103
299 306 311 312 313 313 309 303 293 283 276 267 265 263 253 254 249 245 245 238 233 235 243 275 306 335 358 15 15 21 42 191 128 106 105 108 116 119 112 103 101 106 108 105 102 98 92 87 83 81 80 81 85 88 89 90 92 92 92 93 96 99 102 106 106 107 114 120 122 124 125 126 127 127 129 129 129 130 128 124 122 119 116 115 112 109 102 82
295 304 314 316 318 318 313 307 296 285 277 268 264 249 232 237 239 246 250 235 228 230 241 322 355 8 12 17 22 63 128 159 129 115 116 119 126 129 124 113 103 103 107 109 106 102 97 90 88 85 81 83 87 90 90 88 90 94 94 92 92 91 95 100 102 105 109 114 118 121 124 124 123 122 121 120 119 118 116 115 116 114 114 115 110 101 81 51
291 300 315 320 323 323 316 309 298 285 276 263 248 229 220 221 224 246 246 225 219 210 135 44 30 19 19 23 37 111 141 146 127 123 127 126 132 139 135 123 113 108 106 108 108 103 97 93 90 84 80 83 88 90 92 92 95 98 97 93 90 90 94 96 99 103 109 114 116 118 121 121 120 117 115 114 114 113 113 117 119 114 113 109 97 78 52 18
287 296 313 324 327 327 320 311 297 283 273 247 228 218 203 197 204 228 215 202 204 159 95 61 39 23 33 39 65 131 137 138 127 129 132 129 138 148 142 131 127 120 110 110 109 102 98 96 94 88 85 86 88 92 95 100 102 101 97 93 93 94 92 91 95 101 108 114 112 113 117 118 117 116 114 115 117 118 120 125 121 112 105 90 73 55 35 12
284 291 306 326 329 330 324 311 294 278 264 233 216 200 184 178 177 187 179 175 167 110 82 57 32 18 38 61 108 133 133 134 128 131 133 132 142 151 146 138 134 128 124 124 117 108 104 100 98 99 98 94 92 96 99 103 104 105 106 100 98 96 89 88 96 102 108 112 110 110 114 114 115 115 114 117 121 123 126 125 115 105 97 76 56 39 24 9
280 286 299 323 331 332 325 311 290 267 253 230 208 182 174 168 158 164 159 140 129 108 94 73 39 19 54 100 131 134 132 129 126 129 132 135 144 148 146 141 138 133 131 132 126 119 115 111 109 110 109 105 104 102 100 103 107 112 115 110 106 101 94 91 99 106 110 110 111 113 115 112 111 111 113 116 119 119 117 109 96 88 76 61 46 30 19 6
276 281 292 314 329 332 326 312 284 249 237 231 203 173 169 163 152 151 143 127 116 108 112 114 97 80 110 127 136 135 132 126 123 126 131 138 144 147 144 141 142 137 131 132 129 125 124 126 126 121 115 114 115 109 102 102 104 110 115 115 115 111 105 101 103 108 108 109 113 112 111 109 106 107 109 111 110 105 98 88 77 71 57 45 36 24 17 7
271 276 285 302 322 331 325 310 278 234 218 225 201 175 168 161 153 149 138 120 103 93 113 132 120 114 132 135 137 138 134 127 126 128 133 139 144 148 144 140 142 137 132 134 131 127 128 131 134 130 125 126 126 119 110 103 101 107 114 118 119 116 115 112 108 109 109 113 117 113 110 108 106 104 104 104 98 87 78 73 63 59 49 37 30 20 18 16
265 271 279 292 313 325 323 310 272 227 206 209 199 181 166 157 158 153 138 125 125 152 202 173 129 153 161 141 137 142 136 132 133 134 137 141 145 149 143 139 140 136 134 136 134 131 130 133 137 137 137 137 135 131 121 111 109 110 116 122 120 117 116 113 110 116 119 121 119 117 117 115 113 108 103 93 81 72 64 65 57 47 42 32 27 25 28 26
258 266 272 283 305 318 320 309 271 228 202 199 199 184 165 161 167 157 147 154 173 193 210 210 177 174 171 144 136 143 137 136 139 138 139 143 147 147 142 139 140 138 137 140 139 137 139 144 147 145 144 142 139 135 121 111 115 116 117 121 118 115 115 112 113 114 115 115 114 116 117 116 114 107 106 92 77 77 53 46 45 38 35 32 28 27 31 26
252 259 265 274 293 310 315 309 275 232 204 199 199 188 173 172 173 163 165 178 188 201 210 211 200 184 170 143 133 139 137 137 140 140 141 145 148 145 142 142 142 143 142 144 146 145 148 156 157 155 153 147 140 131 114 108 118 119 119 119 114 113 112 111 112 109 106 103 100 104 106 108 109 106 113 115 103 115 90 37 34 34 33 33 28 24 26 19
247 251 258 266 280 300 310 306 280 238 210 199 196 193 185 181 178 172 177 188 198 205 209 210 202 187 168 143 134 138 137 137 139 142 144 147 149 146 145 146 147 147 144 143 145 143 145 148 150 152 149 143 138 128 118 122 125 120 119 116 111 111 110 109 108 105 103 95 87 91 92 93 96 99 109 113 92 78 56 41 37 40 40 34 28 22 21 14
244 244 249 260 269 286 302 301 283 242 217 203 196 197 194 188 184 178 180 193 203 202 203 208 197 183 169 147 139 140 138 137 138 142 145 146 147 145 145 146 145 143 139 138 138 137 139 140 140 142 141 138 136 129 126 132 130 125 123 116 110 107 104 104 106 102 97 87 77 80 82 82 80 76 77 70 52 41 41 37 33 41 41 33 27 19 14 10
243 240 240 250 262 275 292 295 281 248 224 207 197 199 201 195 188 183 184 196 204 196 197 205 193 180 170 151 142 142 141 139 138 140 141 141 142 142 142 140 138 137 136 139 139 137 138 138 138 139 140 139 135 132 133 138 137 133 131 126 118 107 98 100 105 100 91 81 71 69 68 68 63 51 44 42 38 39 42 34 29 36 33 28 22 15 11 7
241 239 235 240 252 263 280 286 280 260 231 211 204 203 203 198 193 189 188 195 203 195 193 201 193 178 169 156 148 146 144 142 141 142 140 139 139 140 142 140 138 138 140 141 140 138 139 139 139 140 142 141 138 137 140 142 143 140 137 131 121 109 101 101 101 97 94 88 79 73 63 50 42 38 43 41 36 42 44 36 32 33 31 27 16 11 9 3
239 238 233 235 244 252 270 279 278 263 235 218 211 206 201 198 196 193 188 191 200 195 193 198 192 178 169 162 154 149 148 148 146 145 142 142 141 141 143 141 140 142 143 142 140 141 142 141 140 142 145 142 140 142 142 139 139 141 139 134 124 117 116 114 110 111 119 115 98 82 73 56 35 32 44 42 36 44 41 36 31 21 22 22 13 10 7 1
236 236 232 233 238 244 258 269 274 262 242 226 214 207 202 198 197 194 188 192 199 194 193 197 191 178 170 166 160 155 155 154 151 150 147 145 145 144 145 143 142 144 145 144 142 143 145 144 144 146 146 143 141 142 141 139 139 142 140 135 130 127 127 126 119 113 123 122 105 80 68 54 33 27 28 20 27 34 28 27 21 9 9 10 7 6 3 0
233 233 230 229 234 239 247 260 269 261 245 228 214 208 204 200 199 195 192 195 200 193 191 195 189 177 172 169 163 158 157 156 155 155 153 151 150 150 149 148 145 144 145 146 144 144 146 146 147 151 150 149 150 150 146 142 142 142 137 133 131 130 129 128 120 115 137 137 116 94 76 63 43 27 11 353 4 13 8 5 2 3 4 2 1 1 359 358
230 230 227 225 231 234 238 251 261 258 246 228 214 207 203 201 198 195 194 194 201 198 192 191 186 177 172 169 165 162 160 158 158 158 157 156 156 157 158 156 151 148 149 150 146 145 148 147 150 156 155 153 154 153 148 143 140 138 133 131 131 130 128 129 127 133 168 163 138 126 109 89 58 338 322 322 336 355 357 353 351 353 357 358 358 357 357 355
229 227 225 222 225 229 229 240 251 252 246 229 214 205 201 199 194 194 196 193 199 201 192 186 183 177 173 169 166 164 162 160 159 159 160 162 163 165 167 164 157 154 154 152 148 148 151 152 154 157 154 152 151 149 147 144 139 134 131 130 132 131 130 135 144 154 171 165 147 138 134 119 107 267 262 280 317 339 341 338 342 347 352 357 356 354 353 352
227 225 223 219 221 224 223 228 239 243 240 225 211 202 197 193 188 190 195 196 198 194 186 184 181 177 173 170 167 166 166 164 161 163 165 168 172 172 172 167 159 157 155 151 151 152 155 158 159 157 154 153 153 151 149 146 141 137 136 137 139 142 143 146 155 165 170 168 157 150 157 163 159 272 266 286 327 336 334 335 341 348 352 355 354 351 348 347
226 224 222 218 217 220 219 219 227 234 234 220 207 200 192 187 188 189 190 195 196 186 183 184 181 177 175 174 172 170 172 169 166 169 170 172 177 174 171 168 163 161 154 149 156 158 158 162 161 158 156 157 158 155 151 148 145 144 145 145 145 148 151 151 156 159 163 175 173 163 162 179 212 283 290 307 322 327 335 340 342 347 351 351 350 347 343 344
224 223 220 218 215 216 215 213 218 223 226 218 204 195 184 184 190 189 183 187 186 181 186 186 183 182 179 179 179 175 174 173 172 176 175 174 175 170 167 167 166 164 157 155 167 168 165 165 162 162 162 161 161 159 155 150 148 148 151 150 147 148 151 149 154 162 168 181 187 180 171 182 219 276 290 298 308 323 340 342 342 345 347 345 344 342 339 343
222 222 220 217 214 214 213 211 212 214 218 214 202 193 185 186 189 183 179 182 176 179 195 193 188 187 183 183 184 179 178 176 176 180 179 174 170 168 168 167 167 169 165 163 168 170 170 169 168 170 170 167 165 164 159 149 147 152 154 154 155 158 162 162 168 179 181 182 190 191 184 198 250 267 276 297 313 331 341 341 342 344 344 342 340 340 339 346
221 221 220 217 214 213 211 209 208 208 212 210 201 196 191 190 187 177 178 184 177 180 197 197 194 191 186 186 187 185 183 179 176 178 179 176 172 171 172 172 172 173 168 164 167 174 176 174 176 176 173 171 169 166 159 147 150 156 156 166 177 172 172 175 179 188 187 183 195 199 192 217 256 258 282 324 331 336 339 341 343 345 344 340 337 338 342 354
220 220 220 217 215 212 209 209 207 205 208 207 202 197 193 191 185 175 176 184 182 182 190 196 201 196 190 190 191 189 186 181 178 177 179 179 177 176 178 180 178 175 170 167 170 177 177 174 175 175 173 172 170 167 162 155 161 165 163 175 181 172 172 180 187 201 204 198 212 215 208 247 280 289 322 335 331 332 335 337 342 344 340 335 334 336 348 3
219 219 220 218 215 213 209 207 206 203 205 206 199 194 190 188 183 175 174 180 183 186 191 196 201 198 194 194 195 194 189 182 180 181 180 179 179 185 187 184 181 180 178 176 176 177 175 171 172 174 173 170 168 166 161 162 170 174 173 176 177 171 169 179 216 237 244 250 269 286 296 304 310 316 325 327 323 325 329 333 341 341 336 336 339 341 353 3
219 218 219 218 216 214 208 205 205 203 204 204 198 194 189 186 184 179 178 181 185 192 194 193 195 198 198 195 195 196 190 184 184 184 182 177 178 192 195 187 184 187 186 183 181 178 174 169 169 174 174 168 167 167 161 165 173 174 181 189 190 184 182 219 258 270 280 288 299 309 314 314 316 318 320 320 321 323 326 333 341 339 336 343 349 341 352 360
219 216 218 219 217 215 210 204 204 203 203 203 200 197 191 188 189 189 187 189 192 192 189 188 193 199 200 197 197 196 190 186 187 185 181 177 178 193 199 193 189 191 190 185 181 177 173 170 170 175 175 171 174 177 173 174 177 177 192 210 215 212 222 254 274 287 296 300 304 307 310 311 313 316 318 318 320 324 329 334 340 338 337 346 342 334 351 357
220 215 215 218 217 215 211 204 202 204 203 202 201 199 194 191 193 196 198 199 197 191 187 188 191 194 197 200 200 199 193 187 186 184 182 182 184 194 200 198 194 192 189 185 181 179 176 175 175 174 173 174 183 195 198 199 199 197 200 213 232 244 254 268 278 285 292 296 298 300 304 306 308 312 316 317 318 324 329 334 340 341 341 346 336 333 341 346
220 214 214 218 218 216 212 205 203 204 202 201 202 200 196 192 193 197 203 203 197 191 188 186 186 188 196 202 203 204 199 190 186 185 185 188 193 199 200 199 198 194 190 185 183 184 184 183 179 175 176 185 199 210 215 217 219 219 221 229 247 260 264 266 270 274 284 289 290 296 301 303 308 310 311 313 316 323 329 335 342 345 342 333 332 331 325 323
220 214 214 217 217 215 212 208 206 204 202 202 202 201 199 197 196 198 199 198 195 194 191 188 187 189 195 201 203 201 196 193 195 193 191 193 198 202 201 201 200 195 190 190 190 190 192 190 185 181 183 199 216 221 225 228 230 234 241 249 254 259 264 267 271 275 281 285 289 297 302 306 311 309 305 311 316 324 331 337 343 343 330 316 319 323 314 306
218 213 213 215 215 215 213 210 207 204 201 202 201 201 202 201 200 200 198 194 193 194 194 194 196 197 198 198 196 191 192 203 207 200 197 202 203 203 203 203 204 198 193 196 199 196 195 194 195 193 193 206 218 221 230 235 235 236 242 249 252 256 263 269 273 277 283 287 290 297 305 309 307 302 305 313 318 325 332 337 339 335 319 299 298 305 308 303
217 214 214 215 213 213 213 211 210 207 202 201 201 202 203 202 201 200 199 196 194 194 195 197 202 204 201 196 189 187 197 209 208 200 200 209 210 209 208 207 207 204 200 202 204 201 199 201 207 208 207 214 215 213 223 231 231 240 249 254 259 264 267 269 273 278 285 289 292 299 310 311 302 299 307 313 316 322 329 333 332 325 307 285 280 284 294 299
216 215 216 216 212 212 215 213 212 210 205 201 202 204 203 203 202 200 198 197 196 196 197 199 202 203 201 196 191 193 200 206 204 201 204 211 213 215 216 214 212 209 207 209 210 210 211 211 213 215 213 214 214 215 223 223 222 236 249 254 259 264 266 269 273 277 283 290 294 301 308 306 301 303 307 310 312 317 321 325 325 317 298 277 273 274 280 288
215 214 216 216 212 212 216 215 213 212 207 202 203 205 204 203 205 202 200 200 198 197 198 199 201 201 199 198 197 200 203 202 201 204 208 211 214 222 225 222 219 216 213 213 214 216 220 221 221 223 222 219 216 214 217 219 222 232 241 246 251 259 265 272 276 277 281 288 291 295 297 297 299 300 300 304 309 313 315 316 317 310 289 273 271 274 278 281
215 215 217 218 213 212 215 215 215 215 211 205 204 205 204 204 205 203 202 202 200 199 200 200 200 200 200 199 199 202 204 202 202 205 209 211 212 222 232 229 225 224 220 219 220 222 225 226 225 226 230 230 224 216 214 219 226 233 240 245 249 256 264 271 276 278 281 285 287 291 292 293 295 296 297 302 306 308 308 308 308 302 282 270 269 270 274 278
214 215 218 220 217 215 215 215 217 217 213 209 207 206 205 205 205 204 203 203 202 201 201 200 201 201 201 200 201 203 205 206 207 208 211 216 216 221 233 234 231 230 228 226 228 230 230 231 229 228 230 233 231 223 219 221 227 234 241 246 248 252 259 266 271 275 278 282 285 289 291 293 296 298 299 300 301 303 304 304 301 292 275 267 268 268 271 274
213 213 216 218 218 217 215 215 217 217 214 211 210 208 206 206 206 205 205 204 204 203 202 202 203 203 203 203 203 205 206 208 211 211 211 221 228 227 229 233 234 236 234 232 235 237 237 237 236 235 233 234 235 231 228 228 232 238 245 250 252 255 259 264 268 273 276 280 284 288 291 295 300 302 299 296 297 298 297 298 295 283 266 261 265 267 270 272
213 213 215 217 217 216 215 214 216 218 216 213 211 210 207 208 207 206 206 206 205 204 205 207 208 208 209 209 208 209 209 208 212 214 214 221 231 232 231 231 235 238 239 238 240 242 245 246 246 243 239 237 237 236 235 235 238 244 250 255 258 260 265 268 270 274 277 281 284 287 291 296 298 297 294 294 296 295 290 289 286 273 259 256 260 264 269 272
213 213 215 217 217 217 217 215 214 217 217 214 213 212 210 210 209 206 206 207 206 208 209 209 210 210 211 211 211 212 211 210 212 215 216 218 222 229 233 233 232 235 238 241 243 246 250 251 252 251 247 242 240 240 240 239 243 249 254 259 262 264 267 270 271 275 278 280 283 286 290 294 293 292 294 294 294 292 286 281 276 264 257 257 258 262 268 270
Height
10708 10707 10707 10707 10707 10707 10707 10707 10707 10707 10707 10708 10708 10708 10709 10709 10710 10710 10710 10710 10710 10710 10710 10710 10710 10710 10709 10709 10708 10708 10707 10707 10706 10705 10704 10703 10702 10701 10699 10697 10694 10692 10689 10687 10685 10682 10679 10677 10675 10673 10672 10671 10670 10669 10668 10668 10667 10668 10669 10671 10672 10675 10677 10679 10682 10685 10687 10690 10693 10698 10701 10704 10707 10709 10708 10703 10701 10706 10711 10712 10713 10714 10715 10717 10719 10721 10722 10724
10707 10706 10706 10706 10705 10705 10706 10705 10705 10705 10705 10706 10706 10707 10707 10707 10707 10708 10708 10707 10708 10708 10707 10707 10707 10707 10707 10706 10706 10705 10705 10704 10704 10703 10702 10701 10701 10699 10697 10695 10692 10690 10687 10685 10683 10680 10678 10676 10674 10672 10670 10670 10669 10668 10668 10668 10668 10668 10669 10670 10672 10675 10677 10680 10682 10685 10688 10691 10694 10697 10699 10701 10704 10705 10703 10699 10700 10706 10709 10709 10710 10711 10713 10716 10718 10720 10721 10722
10706 10705 10705 10704 10704 10704 10704 10704 10703 10704 10704 10704 10704 10705 10705 10705 10705 10705 10705 10705 10705 10705 10705 10705 10705 10704 10704 10704 10704 10703 10703 10703 10702 10702 10701 10700 10699 10698 10696 10693 10690 10688 10685 10683 10681 10680 10678 10676 10674 10672 10670 10669 10669 10669 10669 10670 10670 10670 10670 10671 10674 10676 10679 10681 10683 10686 10689 10692 10695 10695 10696 10700 10702 10703 10702 10700 10702 10706 10707 10709 10710 10711 10713 10715 10717 10719 10720 10721
10705 10704 10704 10703 10703 10703 10702 10702 10702 10702 10702 10702 10702 10703 10703 10703 10703 10703 10703 10703 10703 10703 10703 10702 10702 10702 10702 10702 10702 10702 10702 10701 10701 10700 10700 10699 10698 10696 10694 10692 10690 10687 10686 10684 10682 10680 10679 10676 10674 10673 10671 10670 10670 10671 10672 10672 10672 10672 10672 10673 10676 10678 10680 10683 10684 10688 10691 10694 10694 10694 10696 10700 10702 10702 10702 10701 10703 10706 10707 10709 10710 10711 10713 10715 10716 10718 10719 10720
10704 10703 10703 10702 10702 10702 10701 10701 10701 10700 10700 10700 10700 10700 10701 10701 10701 10701 10701 10701 10701 10701 10700 10700 10701 10701 10701 10701 10701 10701 10701 10700 10699 10699 10698 10697 10696 10695 10693 10692 10690 10688 10686 10684 10683 10682 10679 10677 10675 10674 10674 10672 10672 10672 10674 10674 10674 10674 10675 10677 10678 10679 10682 10684 10687 10689 10691 10692 10693 10694 10698 10701 10702 10702 10701 10701 10704 10707 10708 10709 10710 10712 10713 10715 10716 10718 10719 10719
10704 10703 10702 10702 10701 10701 10700 10700 10700 10699 10699 10699 10699 10699 10699 10699 10699 10699 10699 10699 10699 10699 10699 10699 10700 10700 10700 10700 10700 10700 10700 10699 10698 10698 10697 10696 10695 10694 10693 10692 10691 10689 10687 10685 10685 10683 10680 10679 10677 10677 10676 10675 10675 10675 10676 10677 10677 10677 10678 10680 10681 10682 10684 10686 10688 10689 10690 10692 10694 10697 10700 10702 10703 10703 10702 10701 10705 10709 10710 10711 10712 10713 10714 10716 10717 10717 10718 10719
10703 10702 10702 10701 10701 10700 10700 10699 10699 10698 10698 10697 10697 10697 10697 10697 10697 10697 10698 10698 10698 10698 10698 10699 10699 10699 10699 10699 10699 10698 10698 10698 10697 10697 10696 10694 10693 10694 10694 10693 10691 10690 10689 10687 10686 10685 10683 10681 10680 10680 10680 10679 10679 10678 10678 10679 10680 10681 10681 10683 10684 10685 10686 10687 10689 10691 10693 10694 10696 10699 10701 10702 10704 10704 10703 10703 10707 10711 10712 10712 10713 10714 10715 10716 10717 10718 10718 10719
10703 10702 10701 10701 10700 10699 10699 10699 10698 10697 10697 10696 10696 10696 10696 10696 10696 10696 10697 10697 10697 10697 10697 10698 10698 10698 10698 10698 10698 10697 10697 10697 10697 10696 10695 10694 10694 10694 10695 10694 10693 10692 10691 10690 10688 10687 10686 10684 10684 10684 10684 10684 10684 10683 10682 10682 10682 10683 10684 10685 10686 10687 10688 10689 10691 10694 10696 10698 10698 10701 10703 10704 10704 10704 10704 10706 10709 10712 10713 10714 10714 10714 10716 10716 10717 10718 10719 10719
10702 10701 10700 10700 10699 10699 10698 10698 10697 10697 10696 10695 10695 10695 10695 10695 10695 10696 10696 10696 10696 10696 10696 10696 10696 10697 10697 10697 10697 10696 10696 10697 10697 10696 10694 10694 10695 10696 10696 10695 10694 10693 10694 10693 10691 10691 10689 10687 10687 10687 10687 10687 10687 10686 10685 10685 10685 10686 10687 10688 10689 10690 10691 10692 10694 10696 10698 10700 10701 10703 10705 10705 10706 10706 10706 10708 10710 10712 10713 10713 10714 10715 10717 10717 10718 10718 10718 10718
10702 10701 10700 10699 10699 10698 10697 10697 10696 10696 10695 10695 10694 10694 10695 10695 10695 10695 10695 10695 10695 10696 10695 10695 10696 10696 10697 10697 10696 10696 10696 10696 10696 10695 10694 10695 10696 10697 10697 10697 10696 10696 10696 10694 10693 10693 10692 10691 10691 10690 10690 10690 10690 10689 10689 10689 10689 10690 10691 10692 10693 10694 10695 10696 10697 10699 10700 10702 10704 10706 10707 10707 10708 10708 10709 10710 10712 10713 10714 10714 10715 10716 10718 10718 10718 10718 10718 10718
10701 10700 10699 10698 10698 10697 10696 10696 10695 10695 10695 10694 10694 10694 10695 10695 10695 10695 10695 10695 10695 10695 10695 10695 10695 10696 10696 10696 10695 10695 10695 10696 10695 10695 10695 10696 10698 10699 10699 10698 10698 10699 10698 10696 10695 10696 10694 10693 10693 10692 10692 10693 10693 10693 10692 10693 10694 10695 10696 10696 10697 10698 10699 10700 10701 10703 10704 10705 10706 10708 10709 10709 10710 10710 10711 10712 10714 10715 10716 10716 10717 10718 10718 10719 10719 10719 10719 10718
10701 10700 10699 10698 10697 10696 10696 10695 10695 10694 10694 10694 10694 10694 10695 10695 10695 10694 10694 10694 10694 10695 10695 10695 10695 10695 10696 10696 10695 10695 10695 10696 10695 10695 10696 10697 10699 10700 10701 10701 10701 10701 10700 10697 10696 10697 10697 10696 10696 10696 10696 10696 10697 10696 10697 10697 10697 10699 10700 10701 10701 10702 10703 10704 10704 10706 10708 10708 10708 10710 10711 10711 10712 10713 10714 10715 10716 10717 10718 10718 10718 10719 10719 10720 10720 10719 10719 10719
10700 10700 10698 10697 10696 10696 10695 10694 10694 10694 10694 10693 10693 10694 10694 10694 10694 10694 10694 10694 10694 10695 10695 10695 10695 10695 10695 10695 10695 10694 10695 10696 10695 10695 10696 10698 10700 10702 10702 10702 10703 10702 10701 10700 10699 10699 10699 10699 10700 10699 10699 10700 10700 10700 10701 10701 10701 10702 10704 10705 10705 10706 10707 10708 10707 10709 10711 10711 10711 10713 10714 10714 10715 10715 10716 10716 10717 10718 10719 10720 10720 10720 10720 10721 10721 10720 10720 10719
10700 10699 10698 10697 10696 10695 10694 10694 10693 10693 10693 10693 10693 10693 10693 10693 10694 10695 10695 10695 10695 10695 10695 10695 10695 10695 10695 10695 10694 10694 10695 10696 10695 10696 10697 10698 10701 10703 10703 10704 10705 10705 10703 10703 10702 10701 10702 10703 10703 10703 10703 10704 10703 10703 10705 10706 10706 10706 10707 10708 10708 10709 10711 10711 10711 10712 10714 10715 10714 10715 10716 10717 10717 10717 10717 10717 10718 10719 10719 10720 10721 10721 10721 10721 10721 10721 10720 10719
10699 10699 10698 10697 10696 10695 10694 10693 10692 10692 10692 10692 10693 10693 10693 10694 10695 10695 10695 10695 10695 10695 10695 10696 10695 10694 10694 10694 10695 10695 10695 10696 10696 10697 10698 10699 10701 10704 10704 10705 10706 10706 10706 10706 10705 10703 10704 10706 10706 10705 10707 10707 10707 10706 10707 10709 10709 10709 10710 10711 10711 10711 10713 10714 10714 10715 10716 10718 10718 10718 10719 10719 10719 10719 10719 10720 10720 10720 10721 10722 10722 10722 10722 10722 10722 10721 10720 10719
10698 10698 10697 10696 10695 10694 10693 10693 10692 10692 10692 10692 10692 10693 10693 10694 10695 10695 10696 10696 10696 10697 10697 10697 10696 10695 10694 10695 10696 10696 10696 10697 10697 10698 10699 10700 10702 10704 10705 10705 10706 10707 10707 10708 10707 10705 10706 10707 10707 10707 10709 10710 10710 10709 10710 10711 10711 10711 10712 10713 10714 10714 10715 10717 10717 10717 10718 10720 10721 10721 10722 10722 10722 10722 10722 10723 10723 10723 10723 10724 10723 10723 10723 10723 10722 10721 10720 10720
10697 10697 10697 10696 10695 10694 10693 10692 10691 10691 10691 10691 10692 10692 10693 10694 10695 10696 10696 10697 10697 10698 10698 10697 10697 10696 10696 10697 10698 10698 10698 10698 10698 10699 10701 10702 10703 10704 10705 10706 10707 10707 10707 10709 10708 10706 10706 10708 10708 10709 10711 10712 10712 10712 10712 10713 10713 10713 10714 10715 10716 10716 10717 10719 10719 10720 10721 10722 10723 10724 10724 10724 10724 10724 10724 10725 10725 10726 10726 10725 10725 10724 10724 10723 10723 10722 10721 10721
10696 10696 10696 10695 10694 10693 10692 10692 10691 10691 10691 10691 10691 10692 10693 10694 10695 10696 10697 10698 10698 10698 10698 10698 10698 10697 10697 10698 10699 10699 10699 10699 10699 10700 10702 10703 10704 10705 10706 10706 10708 10708 10709 10710 10708 10707 10707 10708 10710 10711 10712 10713 10714 10715 10715 10715 10715 10716 10716 10717 10717 10718 10719 10720 10721 10722 10723 10724 10725 10726 10726 10726 10726 10727 10727 10728 10728 10728 10727 10727 10726 10726 10725 10725 10724 10723 10722 10722
10695 10695 10695 10694 10694 10693 10692 10691 10691 10690 10690 10691 10691 10691 10692 10693 10694 10696 10698 10699 10699 10699 10698 10698 10699 10698 10698 10699 10700 10700 10700 10699 10700 10701 10703 10704 10705 10706 10706 10707 10708 10708 10709 10712 10710 10708 10709 10709 10711 10712 10712 10714 10715 10716 10716 10717 10718 10719 10719 10719 10719 10719 10720 10722 10723 10724 10724 10725 10727 10727 10727 10728 10728 10729 10729 10730 10729 10729 10728 10727 10727 10726 10726 10725 10725 10724 10723 10722
10694 10694 10694 10693 10693 10692 10692 10691 10690 10690 10690 10690 10691 10691 10692 10693 10694 10697 10699 10699 10700 10700 10699 10699 10699 10700 10700 10700 10701 10701 10700 10700 10702 10702 10704 10706 10707 10708 10708 10707 10709 10709 10709 10712 10712 10710 10710 10710 10712 10713 10713 10715 10716 10717 10717 10718 10719 10720 10721 10722 10721 10721 10723 10724 10725 10726 10726 10727 10728 10728 10729 10730 10730 10730 10731 10731 10731 10730 10729 10728 10727 10727 10726 10726 10725 10725 10724 10723
10693 10693 10693 10692 10692 10691 10691 10691 10690 10689 10689 10690 10690 10690 10691 10693 10694 10697 10699 10699 10700 10700 10700 10700 10701 10701 10702 10701 10702 10702 10702 10702 10703 10704 10705 10707 10708 10709 10709 10709 10710 10711 10711 10712 10713 10712 10712 10712 10713 10714 10716 10717 10718 10718 10719 10719 10721 10722 10723 10724 10722 10723 10724 10726 10727 10728 10728 10728 10729 10729 10730 10731 10731 10732 10732 10732 10732 10731 10730 10729 10728 10728 10727 10726 10726 10725 10725 10724
10692 10692 10691 10691 10691 10691 10690 10690 10690 10689 10689 10689 10689 10690 10691 10692 10694 10696 10698 10699 10700 10701 10700 10701 10702 10702 10703 10703 10704 10704 10704 10704 10705 10706 10706 10708 10709 10710 10710 10711 10712 10712 10712 10713 10713 10713 10712 10712 10714 10716 10717 10719 10720 10720 10720 10721 10722 10723 10724 10725 10725 10725 10726 10727 10728 10729 10729 10730 10730 10731 10731 10732 10732 10733 10733 10733 10733 10733 10732 10731 10730 10729 10728 10727 10727 10726 10725 10724
10691 10691 10690 10690 10690 10690 10689 10689 10689 10689 10688 10688 10689 10689 10690 10691 10693 10695 10697 10698 10699 10700 10701 10701 10702 10703 10704 10704 10705 10706 10706 10706 10706 10707 10708 10709 10711 10711 10711 10712 10713 10713 10713 10713 10713 10713 10713 10713 10715 10717 10718 10720 10721 10721 10721 10722 10723 10724 10726 10726 10726 10727 10727 10728 10729 10730 10730 10731 10731 10732 10732 10733 10733 10733 10733 10733 10734 10734 10733 10732 10731 10730 10729 10728 10728 10726 10725 10724
10690 10690 10689 10689 10689 10689 10688 10688 10688 10688 10688 10687 10688 10689 10689 10690 10692 10694 10695 10697 10698 10699 10701 10701 10702 10704 10705 10705 10705 10707 10708 10708 10709 10709 10710 10711 10711 10712 10712 10713 10714 10714 10714 10714 10714 10714 10715 10716 10717 10718 10719 10721 10722 10722 10722 10723 10724 10725 10727 10727 10728 10729 10729 10730 10730 10731 10731 10732 10732 10733 10733 10734 10734 10734 10734 10734 10734 10733 10733 10732 10732 10731 10730 10729 10728 10727 10725 10724
10689 10689 10688 10688 10687 10687 10687 10687 10687 10687 10687 10687 10687 10688 10689 10689 10691 10693 10694 10696 10698 10699 10701 10701 10702 10704 10706 10706 10706 10708 10710 10710 10711 10712 10712 10712 10713 10713 10714 10715 10715 10716 10716 10716 10716 10716 10717 10719 10719 10721 10722 10722 10723 10724 10724 10725 10726 10726 10727 10728 10729 10730 10731 10731 10732 10732 10733 10733 10733 10734 10735 10735 10734 10734 10734 10734 10734 10734 10733 10732 10732 10732 10731 10730 10728 10727 10725 10724
10688 10688 10688 10687 10686 10686 10686 10686 10686 10686 10687 10687 10686 10687 10688 10689 10690 10692 10694 10696 10697 10699 10700 10701 10703 10704 10706 10707 10707 10709 10711 10712 10713 10714 10714 10714 10715 10715 10716 10716 10716 10717 10718 10718 10718 10719 10719 10720 10721 10723 10724 10724 10724 10725 10725 10726 10727 10728 10729 10730 10730 10731 10732 10733 10733 10734 10734 10734 10735 10735 10735 10735 10735 10735 10735 10734 10734 10734 10734 10733 10733 10732 10732 10730 10729 10727 10726 10724
10686 10687 10687 10686 10685 10685 10685 10685 10685 10685 10686 10686 10685 10686 10687 10688 10690 10691 10693 10695 10697 10699 10700 10701 10703 10705 10706 10708 10708 10709 10712 10713 10714 10715 10716 10717 10717 10717 10718 10718 10718 10719 10719 10720 10720 10721 10721 10722 10722 10724 10725 10725 10726 10727 10727 10727 10728 10730 10731 10731 10731 10732 10733 10734 10734 10735 10735 10735 10736 10736 10735 10735 10735 10736 10735 10735 10735 10735 10735 10734 10733 10733 10732 10731 10730 10728 10726 10724
10685 10685 10685 10685 10684 10684 10684 10684 10684 10684 10684 10685 10685 10685 10686 10687 10689 10691 10693 10695 10696 10698 10700 10702 10703 10705 10706 10708 10709 10710 10712 10713 10715 10716 10717 10718 10719 10719 10719 10719 10719 10720 10721 10721 10721 10722 10723 10723 10724 10725 10726 10726 10727 10728 10729 10729 10730 10731 10732 10731 10731 10732 10733 10734 10734 10735 10736 10736 10736 10736 10736 10736 10736 10736 10735 10735 10736 10735 10735 10735 10734 10733 10732 10731 10730 10728 10727 10725
10683 10684 10684 10684 10683 10683 10683 10683 10683 10683 10683 10684 10684 10684 10686 10687 10689 10691 10693 10695 10697 10698 10700 10702 10703 10705 10706 10708 10709 10710 10712 10713 10715 10716 10717 10719 10720 10721 10721 10721 10721 10722 10723 10722 10722 10723 10724 10725 10725 10726 10727 10727 10728 10730 10730 10731 10731 10732 10732 10732 10732 10733 10734 10735 10735 10735 10736 10737 10737 10737 10737 10736 10737 10737 10736 10736 10736 10736 10735 10735 10735 10734 10732 10731 10730 10729 10727 10725
10681 10682 10683 10683 10682 10682 10682 10682 10682 10682 10682 10683 10683 10684 10685 10687 10689 10691 10693 10695 10698 10699 10700 10702 10704 10705 10706 10709 10710 10711 10712 10713 10714 10716 10718 10719 10720 10721 10722 10722 10722 10722 10723 10723 10723 10724 10725 10726 10727 10728 10728 10728 10729 10730 10731 10732 10733 10733 10733 10733 10734 10735 10735 10736 10737 10736 10737 10737 10737 10738 10737 10736 10737 10737 10736 10736 10736 10736 10736 10735 10735 10734 10733 10731 10729 10728 10726 10725
10679 10680 10681 10681 10681 10681 10681 10681 10681 10681 10681 10682 10683 10684 10685 10686 10689 10692 10693 10695 10697 10699 10701 10702 10704 10706 10707 10709 10711 10712 10713 10714 10715 10716 10717 10719 10720 10721 10722 10722 10722 10722 10723 10724 10724 10725 10726 10727 10728 10729 10729 10729 10730 10731 10732 10733 10734 10734 10734 10734 10735 10736 10736 10737 10738 10737 10737 10737 10737 10737 10737 10736 10737 10737 10737 10737 10737 10736 10736 10736 10735 10734 10732 10731 10729 10727 10725 10724
10677 10678 10680 10680 10680 10680 10680 10680 10680 10680 10681 10681 10682 10683 10684 10687 10689 10691 10693 10696 10697 10698 10701 10702 10704 10706 10708 10709 10711 10712 10713 10714 10714 10716 10717 10719 10720 10721 10722 10722 10723 10724 10725 10725 10725 10725 10726 10728 10729 10730 10730 10731 10731 10731 10732 10733 10734 10734 10735 10736 10736 10737 10737 10737 10737 10738 10738 10738 10738 10737 10737 10737 10737 10737 10737 10737 10737 10737 10736 10735 10735 10733 10732 10730 10728 10726 10725 10723
10674 10676 10677 10678 10678 10678 10679 10679 10679 10680 10680 10681 10682 10683 10685 10687 10690 10691 10692 10695 10697 10698 10700 10702 10704 10706 10708 10710 10710 10711 10713 10713 10714 10715 10717 10718 10720 10721 10722 10723 10724 10724 10725 10726 10727 10727 10727 10728 10729 10730 10731 10731 10732 10732 10732 10733 10734 10734 10735 10736 10737 10737 10737 10737 10738 10738 10739 10739 10739 10738 10738 10737 10737 10737 10737 10737 10737 10737 10737 10735 10734 10733 10731 10729 10728 10726 10724 10723
10672 10674 10675 10676 10677 10677 10678 10678 10679 10679 10680 10680 10681 10683 10685 10687 10688 10690 10692 10694 10696 10699 10701 10702 10704 10706 10708 10709 10710 10710 10712 10713 10714 10716 10717 10718 10720 10721 10722 10724 10725 10725 10725 10726 10727 10728 10728 10729 10729 10730 10731 10732 10733 10733 10733 10733 10734 10735 10736 10737 10737 10738 10738 10738 10738 10739 10739 10739 10739 10739 10738 10738 10738 10737 10737 10737 10738 10737 10737 10736 10734 10733 10731 10729 10728 10726 10724 10723
10669 10671 10673 10674 10675 10676 10676 10677 10678 10679 10679 10680 10681 10682 10684 10685 10686 10689 10692 10694 10696 10699 10701 10703 10704 10706 10707 10708 10709 10710 10711 10712 10714 10716 10717 10718 10720 10721 10722 10723 10725 10726 10726 10726 10727 10728 10729 10729 10730 10730 10731 10732 10733 10734 10734 10734 10734 10735 10736 10737 10737 10737 10737 10738 10738 10739 10739 10739 10739 10739 10739 10738 10737 10737 10737 10737 10737 10737 10736 10735 10734 10733 10731 10729 10728 10726 10724 10723
10667 10668 10670 10672 10673 10674 10675 10676 10677 10678 10679 10680 10681 10681 10683 10684 10685 10688 10691 10693 10694 10697 10701 10703 10704 10705 10706 10708 10709 10710 10711 10711 10713 10715 10717 10719 10720 10721 10722 10723 10724 10725 10726 10726 10727 10728 10729 10729 10730 10731 10732 10733 10734 10735 10735 10735 10735 10735 10736 10737 10737 10737 10737 10738 10738 10738 10739 10739 10740 10740 10739 10738 10737 10737 10737 10737 10736 10736 10735 10734 10733 10732 10730 10729 10727 10725 10724 10723
10664 10666 10668 10670 10671 10672 10673 10674 10675 10677 10678 10679 10680 10681 10682 10684 10685 10687 10690 10692 10694 10696 10699 10702 10704 10704 10705 10707 10708 10709 10710 10711 10712 10715 10717 10718 10720 10721 10722 10723 10724 10725 10725 10726 10726 10727 10728 10729 10730 10731 10732 10733 10734 10735 10735 10736 10736 10736 10736 10736 10737 10737 10737 10738 10738 10738 10739 10739 10739 10740 10739 10738 10737 10737 10736 10736 10735 10735 10734 10734 10733 10731 10730 10729 10727 10725 10724 10723
10661 10663 10665 10667 10669 10670 10672 10673 10674 10676 10677 10678 10680 10681 10682 10683 10685 10687 10689 10692 10694 10695 10698 10701 10703 10704 10705 10706 10708 10709 10710 10711 10712 10714 10716 10718 10720 10722 10722 10723 10724 10724 10725 10726 10726 10727 10728 10729 10730 10732 10733 10733 10734 10735 10735 10735 10736 10736 10736 10736 10737 10737 10737 10737 10737 10738 10738 10739 10739 10739 10738 10737 10737 10736 10736 10736 10735 10734 10734 10733 10732 10731 10729 10728 10726 10724 10724 10723
10657 10660 10662 10665 10667 10669 10670 10671 10673 10674 10676 10677 10678 10679 10680 10682 10684 10686 10688 10690 10692 10694 10696 10699 10701 10703 10704 10705 10707 10709 10710 10711 10712 10714 10716 10718 10720 10721 10722 10722 10723 10724 10725 10725 10726 10727 10728 10729 10731 10732 10733 10734 10734 10734 10734 10735 10735 10736 10736 10736 10736 10736 10736 10736 10736 10737 10737 10738 10738 10737 10737 10736 10736 10735 10735 10735 10735 10734 10733 10732 10731 10730 10728 10727 10725 10724 10723 10723
10653 10657 10660 10662 10664 10666 10668 10670 10672 10673 10674 10675 10677 10679 10680 10681 10683 10685 10686 10688 10689 10691 10694 10698 10700 10701 10703 10705 10706 10708 10709 10710 10712 10713 10715 10718 10719 10720 10721 10721 10722 10723 10725 10725 10726 10727 10728 10729 10729 10731 10733 10733 10733 10734 10734 10734 10734 10735 10735 10736 10736 10736 10736 10736 10736 10736 10736 10737 10737 10737 10736 10735 10735 10734 10734 10734 10734 10733 10732 10731 10730 10729 10727 10726 10725 10723 10723 10723
10650 10654 10657 10658 10661 10664 10666 10668 10669 10670 10672 10674 10676 10678 10679 10681 10683 10685 10686 10687 10689 10690 10693 10697 10699 10700 10702 10705 10707 10708 10708 10709 10711 10713 10715 10717 10717 10719 10720 10721 10722 10723 10725 10726 10726 10727 10728 10728 10729 10730 10732 10732 10732 10733 10734 10733 10734 10734 10734 10735 10735 10735 10736 10736 10736 10736 10736 10736 10736 10736 10736 10735 10735 10734 10733 10733 10732 10732 10731 10731 10729 10728 10726 10725 10724 10723 10723 10722
10646 10650 10653 10655 10658 10661 10664 10666 10666 10668 10670 10672 10674 10676 10678 10680 10682 10684 10686 10687 10688 10689 10691 10694 10696 10699 10701 10704 10706 10707 10708 10709 10710 10712 10714 10715 10716 10718 10719 10720 10721 10723 10725 10725 10726 10726 10727 10728 10729 10730 10731 10731 10732 10732 10733 10733 10734 10734 10735 10735 10735 10735 10736 10736 10736 10736 10736 10736 10736 10736 10735 10735 10734 10733 10733 10732 10731 10731 10731 10730 10728 10727 10726 10725 10724 10723 10722 10722
10642 10648 10651 10652 10655 10658 10661 10663 10664 10666 10668 10669 10672 10674 10676 10677 10679 10681 10683 10685 10687 10689 10690 10692 10694 10696 10698 10701 10704 10706 10707 10710 10711 10711 10713 10714 10715 10716 10718 10719 10721 10723 10724 10725 10725 10726 10727 10728 10728 10729 10729 10730 10731 10732 10732 10733 10733 10734 10734 10735 10735 10735 10735 10735 10735 10736 10736 10735 10735 10735 10734 10734 10733 10732 10732 10731 10730 10730 10729 10728 10728 10726 10725 10724 10723 10722 10722 10721
10640 10645 10645 10645 10649 10654 10657 10659 10661 10662 10664 10666 10669 10672 10673 10675 10677 10679 10681 10683 10685 10688 10690 10692 10693 10695 10697 10699 10702 10704 10706 10708 10710 10711 10712 10714 10714 10715 10717 10719 10720 10722 10724 10724 10724 10725 10726 10727 10728 10728 10729 10729 10730 10731 10731 10732 10733 10733 10734 10734 10734 10734 10734 10735 10735 10735 10735 10734 10734 10734 10733 10733 10732 10731 10731 10730 10729 10728 10728 10727 10726 10725 10724 10724 10723 10722 10721 10721
10634 10638 10637 10639 10645 10650 10652 10654 10656 10659 10661 10664 10666 10668 10670 10673 10675 10677 10680 10682 10684 10686 10688 10690 10692 10693 10696 10698 10701 10702 10704 10706 10709 10710 10712 10713 10714 10715 10717 10718 10719 10721 10722 10723 10723 10724 10725 10726 10727 10728 10728 10729 10729 10730 10730 10731 10732 10732 10732 10733 10733 10733 10733 10734 10734 10734 10733 10733 10732 10732 10732 10731 10731 10730 10729 10729 10728 10727 10726 10725 10725 10724 10723 10723 10722 10721 10720 10720
10627 10631 10632 10635 10641 10645 10647 10651 10654 10657 10659 10662 10664 10666 10669 10671 10673 10675 10677 10680 10682 10684 10686 10688 10690 10692 10694 10697 10699 10701 10702 10704 10707 10708 10710 10712 10714 10715 10716 10717 10719 10720 10721 10721 10722 10723 10724 10724 10725 10726 10727 10727 10728 10729 10730 10730 10730 10730 10731 10731 10731 10732 10732 10733 10733 10732 10732 10731 10730 10730 10730 10730 10729 10729 10728 10727 10726 10725 10725 10724 10723 10723 10722 10722 10721 10720 10719 10719
10619 10625 10628 10632 10638 10642 10644 10648 10651 10652 10656 10659 10662 10664 10666 10668 10670 10673 10675 10677 10679 10682 10683 10686 10688 10690 10692 10695 10697 10699 10700 10702 10705 10707 10709 10711 10713 10715 10715 10716 10717 10718 10719 10720 10720 10721 10722 10723 10724 10724 10726 10726 10727 10727 10728 10728 10728 10729 10729 10730 10730 10730 10730 10731 10731 10730 10730 10730 10729 10728 10728 10728 10728 10728 10727 10725 10724 10723 10723 10722 10722 10721 10720 10720 10719 10719 10718 10718
10616 10624 10627 10630 10635 10638 10639 10644 10647 10649 10654 10657 10658 10660 10663 10664 10667 10670 10673 10675 10677 10679 10681 10684 10686 10688 10690 10692 10695 10696 10698 10701 10703 10705 10707 10709 10711 10713 10714 10715 10716 10717 10717 10718 10719 10719 10720 10721 10721 10722 10723 10724 10725 10725 10726 10726 10726 10727 10727 10728 10728 10729 10729 10729 10729 10728 10728 10728 10727 10726 10726 10726 10725 10725 10725 10724 10723 10722 10721 10720 10720 10719 10718 10718 10718 10717 10717 10716
10615 10622 10624 10628 10633 10635 10637 10641 10644 10647 10651 10653 10654 10657 10660 10662 10665 10668 10670 10672 10674 10677 10680 10682 10684 10686 10688 10690 10692 10695 10697 10699 10701 10703 10705 10708 10710 10711 10712 10714 10715 10715 10716 10717 10717 10718 10718 10719 10719 10720 10721 10721 10722 10723 10723 10724 10724 10725 10725 10726 10726 10726 10727 10727 10726 10726 10726 10726 10725 10724 10724 10723 10723 10723 10723 10722 10721 10720 10719 10718 10717 10717 10716 10716 10716 10716 10715 10715
10609 10613 10617 10622 10626 10629 10633 10637 10639 10641 10644 10647 10650 10653 10656 10658 10661 10664 10666 10669 10672 10675 10677 10678 10679 10682 10685 10688 10689 10691 10694 10697 10699 10702 10704 10706 10708 10709 10710 10712 10712 10713 10714 10715 10715 10715 10716 10717 10717 10717 10718 10719 10720 10720 10721 10722 10722 10723 10723 10723 10723 10724 10724 10724 10724 10724 10724 10723 10723 10722 10722 10722 10721 10721 10720 10719 10718 10717 10716 10716 10715 10714 10714 10714 10714 10714 10714 10713
10601 10606 10610 10613 10618 10622 10626 10630 10633 10635 10639 10642 10645 10648 10651 10654 10656 10660 10664 10667 10670 10672 10673 10674 10677 10682 10685 10686 10687 10690 10693 10695 10697 10699 10701 10702 10705 10707 10708 10708 10709 10710 10711 10713 10713 10713 10714 10714 10714 10715 10716 10716 10717 10718 10718 10719 10720 10720 10721 10721 10721 10721 10721 10721 10721 10721 10721 10721 10720 10720 10720 10720 10719 10719 10718 10716 10715 10714 10713 10713 10713 10712 10712 10712 10712 10712 10712 10712
10594 10599 10603 10607 10613 10618 10621 10624 10627 10628 10631 10637 10640 10644 10647 10650 10653 10658 10661 10664 10666 10667 10669 10673 10678 10681 10682 10682 10685 10689 10692 10692 10693 10695 10696 10697 10700 10703 10704 10705 10706 10707 10709 10710 10711 10711 10712 10712 10712 10712 10713 10713 10714 10715 10716 10717 10718 10719 10719 10718 10718 10719 10719 10719 10719 10719 10718 10718 10718 10717 10718 10719 10718 10716 10715 10714 10712 10711 10710 10710 10710 10710 10710 10711 10711 10710 10710 10709